EHI
0 0 0 0 0 0 0 0 0 0 0 0 0 0 0 0 0 0 0 0 0 0 0 0 0 0 0 0 0 0 0 0 0 0 0 0 0 0 0 0 0 0 0
0 0 0 0 0 0 0 0 0 0 0 0 0 0 0 0 0 0 0 0 0 0 0 0 0 0 0 0 0 0 0 0 0 0 0 0 0 0 0 0 0 0 0
0 0 0 0 0 0 0 0 0 0 0 0 0 0 0 0 0 0 0 0 0 0 0 0 0 0 0 0 0 0 0 0 0 0 0 0 0 0 0 0 0 0 0
0 0 0 0 0 0 0 0 0 0 0 0 0 0 0 0 0 0 0 0 0 0 0 0 0 0 0 0 0 0 0 0 0 0 0 0 0 0 0 0 0 0 0
0 0 0 0 0 0 0 0 0 0 0 0 0 0 0 0 0 0 0 0 0 0 0 0 0 0 0 0 0 0 0 0 0 0 0 0 0 0 0 0 0 0 0
0 0 0 0 0 0 0 0 0 0 0 0 0 0 0 0 0 0 0 0 0 0 0 0 0 0 0 0 0 0 0 0 0 0 0 0 0 0 0 0 0 0 0
0 0 0 0 0 0 0 0 0 0 0 0 0 0 0 0 0 0 0 0 0 0 0 0 0 0 0 0 0 0 0 0 0 0 0 0 0 0 0 0 0 0 0
0 0 0 0 0 0 0 0 0 0 0 0 0 0 0 0 0 0 0 0 0 0 0 0 0 0 0 0 0 0 0 0 0 0 0 0 0 0 0 0 0 0 0
0 0 0 0 0 0 0 0 0 0 0 0 0 0 0 0 0 0 0 0 0 0 0 0 0 0 0 0 0 0 0 0 0 0 0 0 0 0 0 0 0 0 0
0 0 0 0 0 0 0 0 0 0 0 0 0 0 0 0 0 0 0 0 0 0 0 0 0 0 0 0 0 0 0 0 0 0 0 0 0 0 0 0 0 0 0
0 0 0 0 0 0 0 0 0 0 0 0 0 0 0 0 0 0 0 0 0 0 0 0 0 0 0 0 0 0 0 0 0 0 0 0 0 0 0 0 0 0 0
0 0 0 0 0 0 0 0 0 0 0 0 0 0 0 0 0 0 0 0 0 0 0 0 0 0 0 0 0 0 0 0 0 0 0 0 0 0 0 0 0 0 0
0 0 0 0 0 0 0 0 0 0 0 0 0 0 0 0 0 0 0 0 0 0 0 0 0 0 0 0 0 0 0 0 0 0 0 0 0 0 0 0 0 0 0
0 0 0 0 0 0 0 0 0 0 0 0 0 0 0 0 0 0 0 0 0 0 0 0 0 0 0 0 0 0 0 0 0 0 0 0 0 0 0 0 0 0 0
0 0 0 0 0 0 0 0 0 0 0 0 0 0 0 0 0 0 0 0 0 0 0 0 0 0 0 0 0 0 0 0 0 0 0 0 0 0 0 0 0 0 0
0 0 0 0 0 0 0 0 0 0 0 0 0 0 0 0 0 0 0 0 0 0 0 0 0 0 0 0 0 0 0 0 0 0 0 0 0 0 0 0 0 0 0
0 0 0 0 0 0 0 0 0 0 0 0 0 0 0 0 0 0 0 0 0 0 0 0 0 0 0 0 0 0 0 0 0 0 0 0 0 0 0 0 0 0 0
0 0 0 0 0 0 0 0 0 0 0 0 0 0 0 0 0 0 0 0 0 0 0 0 0 0 0 0 0 0 0 0 0 0 0 0 0 0 0 0 0 0 0
0 0 0 0 0 0 0 0 0 0 0 0 0 0 0 0 0 0 0 0 0 0 0 0 0 0 0 0 0 0 0 0 0 0 0 0 0 0 0 0 0 0 0
0 0 0 0 0 0 0 0 0 0 0 0 0 0 0 0 0 0 0 0 0 0 0 0 0 0 0 0 0 0 0 0 0 0 0 0 0 0 0 0 0 0 0
0 0 0 0 0 0 0 0 0 0 0 0 0 0 0 0 0 0 0 0 0 0 0 0 0 0 0 0 0 0 0 0 0 0 0 0 0 0 0 0 0 0 0
0 0 0 0 0 0 0 0 0 0 0 0 0 0 0 0 0 0 0 0 0 0 0 0 0 0 0 0 0 0 0 0 0 0 0 0 0 0 0 0 0 0 0
0 0 0 0 0 0 0 0 0 0 0 0 0 0 0 0 0 0 0 0 0 0 0 0 0 0 0 0 0 0 0 0 0 0 0 0 0 0 0 0 0 0 0
0 0 0 0 0 0 0 0 0 0 0 0 0 0 0 0 0 0 0 0 0 0 0 0 0 0 0 0 0 0 0 0 0 0 0 0 0 0 0 0 0 0 0
0 0 0 0 0 0 0 0 0 0 0 0 0 0 0 0 0 0 0 0 0 0 0 0 0 0 0 0 0 0 0 0 0 0 0 0 0 0 0 0 0 0 0
0 0 0 0 0 0 0 0 0 0 0 0 0 0 0 0 0 0 0 0 0 0 0 0 0 0 0 0 0 0 0 0 0 0 0 0 0 0 0 0 0 0 0
Wind_Speed
6 6 5 6 6 6 6 7 6 7 6 6 6 6 5 5 4 4 3 3 3 2 2 1 0 1 2 2 3 3 3 3 3 2 2 2 3 3 3 2 3 5 5
6 6 6 6 6 6 7 7 7 8 8 7 7 8 8 8 6 4 3 3 3 3 3 2 1 1 2 2 3 4 3 3 4 4 2 2 2 3 3 2 2 4 4
5 6 6 6 6 7 7 7 7 7 8 8 8 9 9 9 9 8 5 3 3 2 2 2 2 2 2 2 3 3 3 3 3 4 3 2 2 2 3 2 3 3 6
5 5 6 6 6 6 6 7 7 7 8 9 9 9 9 9 10 10 8 4 3 3 3 3 2 2 2 3 3 4 4 4 4 4 3 2 2 2 3 3 3 3 5
4 5 5 5 5 5 6 6 6 8 9 8 8 8 8 7 9 10 9 6 4 2 3 3 3 5 5 4 4 4 4 3 3 3 3 3 2 3 3 3 5 6 6
4 4 5 5 5 5 5 6 6 6 7 7 7 7 7 8 14 15 11 7 4 3 2 3 4 5 6 7 8 7 5 4 4 3 3 4 4 3 4 5 6 6 4
4 4 4 5 5 5 6 5 6 5 5 6 6 6 5 8 16 17 17 7 4 3 2 2 3 4 5 4 6 7 6 5 3 3 4 3 3 4 5 6 6 5 6
4 4 4 4 5 5 5 5 6 5 4 4 4 5 5 9 16 17 18 6 3 5 4 4 4 4 4 5 5 5 6 5 3 3 3 3 2 3 5 6 8 9 8
4 4 5 5 5 5 6 5 5 4 4 3 3 4 5 7 14 16 16 5 3 5 5 6 5 5 7 8 6 6 6 5 7 9 8 7 8 8 9 9 9 10 7
4 4 4 4 4 5 5 5 4 4 4 3 3 3 4 5 11 15 14 5 4 3 3 5 8 6 6 7 5 5 5 3 4 5 5 6 7 8 10 8 8 9 7
4 4 4 4 3 4 4 4 3 3 3 3 3 2 4 5 8 12 12 5 5 3 3 3 4 6 6 6 6 4 4 4 4 5 5 5 6 6 6 5 5 6 5
3 2 2 3 4 4 2 2 3 4 4 4 4 3 3 4 6 9 11 9 8 4 4 3 3 6 6 7 5 6 6 5 4 4 5 6 5 6 6 6 7 6 5
3 2 1 2 2 1 3 3 3 4 4 4 4 4 3 4 6 13 12 10 9 5 4 5 5 5 5 5 7 6 4 4 4 5 5 5 5 5 6 6 7 8 9
2 2 2 1 1 2 2 3 3 4 4 4 5 4 4 4 5 7 7 5 5 3 2 3 5 6 5 6 5 3 3 3 4 4 5 4 4 4 5 4 5 5 7
3 3 2 2 1 1 3 2 3 3 2 2 3 4 4 4 6 8 6 5 4 4 3 1 1 2 3 3 3 3 3 4 4 3 4 4 4 4 3 3 4 5 5
3 2 2 2 2 1 2 3 1 1 3 2 1 2 2 3 7 8 8 9 9 8 3 3 3 3 3 3 3 3 3 4 4 4 4 4 4 4 3 3 4 5 5
3 2 2 1 2 1 1 2 3 2 3 3 3 2 1 4 6 7 7 8 8 7 5 4 4 3 3 3 3 3 3 3 3 4 4 3 3 4 3 3 3 4 4
3 2 2 2 2 2 1 1 1 2 3 3 4 5 4 3 4 6 6 3 3 4 3 3 3 2 2 2 2 3 3 3 3 3 3 3 3 3 3 3 3 3 4
4 3 4 3 3 3 2 2 2 2 2 3 4 3 6 4 4 6 5 2 3 3 2 2 2 2 2 2 2 2 3 3 3 4 3 3 3 3 3 3 4 4 3
2 2 2 2 3 3 4 3 3 3 2 2 3 3 3 3 2 1 0 1 2 2 2 2 2 2 2 2 2 2 3 3 3 3 3 3 3 3 3 4 4 2 1
4 5 7 3 3 4 3 3 3 3 2 2 3 4 3 0 1 2 2 1 2 2 2 2 2 2 1 1 1 2 3 3 3 3 3 3 2 2 2 2 2 2 3
4 4 5 5 5 4 3 3 3 3 3 3 4 4 5 2 2 3 3 3 2 2 2 1 2 2 1 1 1 0 2 3 3 3 3 3 3 2 2 2 2 2 3
4 4 4 5 5 5 4 3 3 3 3 4 4 6 5 4 4 4 4 4 4 3 3 2 2 2 1 0 1 1 0 1 2 3 3 3 3 2 2 2 3 3 3
5 5 5 4 3 4 4 5 5 4 4 4 4 4 6 6 5 5 5 5 5 4 4 4 3 5 5 3 1 0 1 2 2 2 3 2 3 2 2 2 3 3 3
5 5 5 4 4 4 4 4 5 5 5 5 4 4 4 5 5 5 5 5 6 5 6 5 4 4 6 7 5 3 5 5 5 3 1 1 2 2 2 3 3 2 3
6 5 5 4 4 4 4 4 4 4 4 4 4 4 5 5 5 5 6 6 6 6 6 5 6 7 7 6 7 8 10 7 5 3 1 0 2 3 3 2 3 3 3
Wind_Direction
358 355 3 1 357 11 7 2 6 5 10 26 21 25 34 40 45 48 49 53 62 59 43 40 220 170 177 175 174 174 176 163 163 159 159 154 152 148 144 164 141 151 169
1 360 11 12 9 17 15 10 16 14 13 23 28 29 31 29 23 26 34 50 60 63 54 45 36 117 161 157 160 165 165 159 152 151 149 154 162 151 146 147 143 151 138
8 9 14 20 17 19 17 9 16 20 17 20 32 34 31 25 15 8 11 30 56 69 77 76 60 79 130 146 152 155 153 149 132 139 147 148 143 143 133 137 128 111 106
18 18 11 17 18 17 20 12 16 21 27 21 30 33 29 26 16 3 354 8 38 72 79 80 78 89 106 124 132 140 142 144 141 142 143 146 146 149 137 137 118 98 101
25 27 11 13 23 15 23 20 23 26 29 23 28 30 27 24 13 4 349 359 14 55 89 93 88 96 112 115 121 126 130 134 141 146 149 147 153 154 160 146 125 107 96
42 40 20 17 19 15 24 21 24 37 36 29 22 24 32 22 4 7 4 344 355 29 71 95 104 95 99 104 111 112 120 134 148 149 156 158 168 167 147 137 135 132 117
51 47 33 24 19 15 18 22 22 32 43 39 19 15 29 20 7 4 357 340 358 21 47 87 104 105 101 97 97 98 89 85 111 148 152 161 160 163 149 148 149 134 117
56 39 36 36 27 19 15 24 28 21 29 42 22 12 17 22 11 5 352 350 24 27 37 55 89 97 96 104 100 87 70 52 68 103 112 114 119 144 149 142 126 110 104
60 42 33 33 34 24 18 17 27 16 10 26 24 15 22 21 14 9 1 344 31 49 45 45 65 84 92 100 97 93 86 73 71 88 98 103 98 101 119 120 124 126 121
54 48 37 36 45 32 19 11 13 10 357 3 23 27 34 26 20 16 8 0 12 36 58 70 62 70 79 90 97 94 87 82 87 93 92 94 90 96 115 129 136 134 129
59 46 35 19 54 66 19 359 6 357 342 347 9 37 54 39 20 18 15 13 355 12 49 66 57 59 72 80 89 94 90 81 74 75 83 79 75 79 87 96 108 130 128
95 61 47 41 22 35 25 354 351 348 349 359 8 25 42 46 30 10 13 17 8 24 42 54 58 56 75 88 84 90 86 78 75 79 77 72 73 74 78 83 86 81 85
159 157 183 151 127 41 357 6 10 7 7 5 8 10 16 34 17 11 7 12 18 36 55 54 59 61 74 86 90 97 94 85 89 92 90 86 84 86 83 78 72 69 62
175 180 196 161 114 112 59 31 35 23 12 4 7 5 5 26 15 360 352 358 5 28 64 68 65 65 76 92 95 91 89 100 110 104 100 96 92 92 96 100 96 87 74
187 198 189 148 121 102 108 66 58 83 74 26 1 355 6 4 352 347 355 358 356 4 354 31 66 76 82 88 90 89 91 98 100 101 101 98 91 87 88 95 103 99 98
218 186 175 170 151 152 149 136 52 118 156 125 36 2 39 18 340 350 1 6 7 6 30 65 67 62 67 81 96 95 94 99 106 106 100 102 106 106 97 84 95 109 115
250 182 168 160 153 205 206 172 178 205 237 257 261 293 340 336 341 346 355 0 13 32 53 58 62 61 64 71 85 98 103 106 105 106 110 110 108 105 102 99 100 109 119
246 151 149 173 197 216 213 231 192 174 189 211 227 242 250 287 321 333 340 351 40 51 58 64 66 65 67 74 84 95 103 106 105 108 108 105 106 109 110 111 105 110 127
240 182 178 209 202 203 195 213 230 219 202 171 156 206 235 243 285 307 329 64 87 84 80 75 78 84 87 88 93 102 105 105 105 100 97 99 102 107 109 106 104 102 113
247 163 171 207 231 216 203 209 214 214 216 174 147 156 183 201 207 212 132 86 102 106 107 99 82 83 89 87 83 97 105 105 107 105 107 102 97 105 117 124 138 157 178
220 196 191 211 244 243 220 215 208 193 198 174 138 139 144 249 157 151 149 148 137 136 124 118 109 86 79 86 98 126 131 128 125 124 123 118 110 105 116 131 140 145 131
235 207 184 200 221 234 230 226 216 198 198 182 155 161 171 205 237 180 168 174 167 140 133 141 150 136 115 64 27 81 133 138 141 138 135 131 126 131 135 138 148 143 138
241 257 217 207 210 208 206 230 240 216 209 208 179 165 179 205 212 186 174 170 162 165 162 170 168 156 175 274 335 14 59 166 153 141 139 144 153 167 170 176 172 163 172
214 236 242 228 218 210 202 210 223 218 208 209 203 184 181 190 190 183 176 168 167 176 175 180 197 193 188 183 198 303 27 61 95 115 139 164 176 182 176 170 174 197 178
209 223 226 224 226 225 223 222 223 219 207 200 201 198 189 183 183 180 175 171 172 181 187 186 191 198 195 185 187 169 132 115 94 47 126 157 194 187 180 178 185 206 177
204 219 221 215 215 223 229 234 235 230 219 206 199 196 192 189 186 182 177 175 176 183 187 189 194 194 194 198 199 175 164 163 153 130 60 292 219 198 189 198 202 204 193